| time (UTC) | temp F | wind direction | speed MPH | gust MPH | rain 1hr in | rain 24hr in | rain mn in | humidity % | barometer mb |
| 20260906231037 | 98 | 135 | 5.0 | 11.0 | 0.00 | 0.00 | 0.00 | 44 | 1010.1 |
| 20260906230057 | 99 | 135 | 6.0 | 11.0 | 0.00 | 0.00 | 0.00 | 44 | 1010.0 |
| 20260906225037 | 100 | 135 | 2.0 | 7.0 | 0.00 | 0.00 | 0.00 | 42 | 1010.1 |
| 20260906224037 | 101 | 135 | 2.0 | 7.0 | 0.00 | 0.00 | 0.00 | 42 | 1010.1 |
| 20260906223037 | 102 | 135 | 1.0 | 5.0 | 0.00 | 0.00 | 0.00 | 41 | 1010.2 |
| 20260906222057 | 101 | 135 | 5.0 | 13.0 | 0.00 | 0.00 | 0.00 | 42 | 1010.2 |
| 20260906221037 | 102 | 135 | 2.0 | 7.0 | 0.00 | 0.00 | 0.00 | 41 | 1010.2 |
| 20260906220037 | 101 | 90 | 3.0 | 9.0 | 0.00 | 0.00 | 0.00 | 42 | 1010.3 |
| 20260906215037 | 100 | 113 | 5.0 | 13.0 | 0.00 | 0.00 | 0.00 | 43 | 1010.2 |
| 20260906214037 | 100 | 158 | 4.0 | 10.0 | 0.00 | 0.00 | 0.00 | 43 | 1010.2 |
| 20260906213037 | 101 | 180 | 5.0 | 12.0 | 0.00 | 0.00 | 0.00 | 41 | 1010.4 |
| 20260906212037 | 100 | 158 | 6.0 | 11.0 | 0.00 | 0.00 | 0.00 | 41 | 1010.6 |
| 20260906211057 | 100 | 135 | 4.0 | 10.0 | 0.00 | 0.00 | 0.00 | 42 | 1010.6 |
| 20260906210037 | 100 | 135 | 8.0 | 17.0 | 0.00 | 0.00 | 0.00 | 42 | 1011.0 |
| 20260906205037 | 102 | 113 | 3.0 | 8.0 | 0.00 | 0.00 | 0.00 | 42 | 1011.1 |
| 20260906204037 | 100 | 203 | 5.0 | 10.0 | 0.00 | 0.00 | 0.00 | 43 | 1011.2 |
| 20260906203037 | 100 | 135 | 5.0 | 11.0 | 0.00 | 0.00 | 0.00 | 43 | 1011.3 |
| 20260906202037 | 102 | 113 | 4.0 | 11.0 | 0.00 | 0.00 | 0.00 | 41 | 1011.5 |
| 20260906201057 | 101 | 135 | 5.0 | 14.0 | 0.00 | 0.00 | 0.00 | 41 | 1011.5 |
| 20260906200117 | 101 | 135 | 4.0 | 13.0 | 0.00 | 0.00 | 0.00 | 44 | 1011.5 |
| 20260906195037 | 101 | 135 | 3.0 | 8.0 | 0.00 | 0.00 | 0.00 | 42 | 1011.8 |
| 20260906194037 | 98 | 158 | 5.0 | 15.0 | 0.00 | 0.00 | 0.00 | 45 | 1011.8 |
| 20260906193037 | 98 | 135 | 6.0 | 14.0 | 0.00 | 0.00 | 0.00 | 46 | 1011.9 |
| 20260906192057 | 100 | 135 | 3.0 | 8.0 | 0.00 | 0.00 | 0.00 | 45 | 1012.0 |
| 20260906191037 | 99 | 135 | 5.0 | 13.0 | 0.00 | 0.00 | 0.00 | 45 | 1012.1 |
| 20260906190037 | 98 | 180 | 5.0 | 9.0 | 0.00 | 0.00 | 0.00 | 46 | 1012.2 |
| 20260906185037 | 99 | 135 | 2.0 | 8.0 | 0.00 | 0.00 | 0.00 | 46 | 1012.4 |
| 20260906184037 | 98 | 158 | 5.0 | 12.0 | 0.00 | 0.00 | 0.00 | 48 | 1012.4 |
| 20260906183037 | 98 | 135 | 7.0 | 13.0 | 0.00 | 0.00 | 0.00 | 47 | 1012.6 |
| 20260906182037 | 98 | 113 | 3.0 | 12.0 | 0.00 | 0.00 | 0.00 | 49 | 1012.7 |
| 20260906181037 | 97 | 135 | 6.0 | 12.0 | 0.00 | 0.00 | 0.00 | 49 | 1013.0 |
| 20260906180037 | 97 | 135 | 5.0 | 13.0 | 0.00 | 0.00 | 0.00 | 49 | 1013.1 |
| 20260906175037 | 96 | 158 | 5.0 | 11.0 | 0.00 | 0.00 | 0.00 | 52 | 1013.2 |
| 20260906174057 | 95 | 135 | 5.0 | 11.0 | 0.00 | 0.00 | 0.00 | 53 | 1013.4 |
| 20260906173037 | 97 | 135 | 2.0 | 7.0 | 0.00 | 0.00 | 0.00 | 54 | 1013.6 |
| 20260906172037 | 96 | 135 | 2.0 | 7.0 | 0.00 | 0.00 | 0.00 | 53 | 1013.6 |
| 20260906171037 | 96 | 113 | 3.0 | 12.0 | 0.00 | 0.00 | 0.00 | 53 | 1013.7 |
| 20260906170037 | 95 | 135 | 4.0 | 11.0 | 0.00 | 0.00 | 0.00 | 54 | 1013.8 |
| 20260906165037 | 94 | 135 | 3.0 | 10.0 | 0.00 | 0.00 | 0.00 | 56 | 1013.9 |
| 20260906164037 | 93 | 135 | 2.0 | 5.0 | 0.00 | 0.00 | 0.00 | 60 | 1013.9 |
| 20260906163037 | 93 | 113 | 3.0 | 8.0 | 0.00 | 0.00 | 0.00 | 58 | 1014.0 |
| 20260906162037 | 93 | 90 | 2.0 | 8.0 | 0.00 | 0.00 | 0.00 | 58 | 1014.0 |
| 20260906161037 | 91 | 203 | 4.0 | 8.0 | 0.00 | 0.00 | 0.00 | 61 | 1013.9 |
| 20260906160037 | 91 | 135 | 4.0 | 9.0 | 0.00 | 0.00 | 0.00 | 62 | 1014.0 |
| 20260906155037 | 92 | 90 | 2.0 | 4.0 | 0.00 | 0.00 | 0.00 | 66 | 1013.9 |
| 20260906154037 | 90 | 68 | 3.0 | 8.0 | 0.00 | 0.00 | 0.00 | 69 | 1014.0 |
| 20260906153037 | 89 | 90 | 2.0 | 5.0 | 0.00 | 0.00 | 0.00 | 70 | 1013.7 |
| 20260906152037 | 88 | 90 | 2.0 | 6.0 | 0.00 | 0.00 | 0.00 | 72 | 1013.6 |
| 20260906151037 | 87 | 68 | 3.0 | 5.0 | 0.00 | 0.00 | 0.00 | 73 | 1013.6 |
| 20260906150037 | 87 | 90 | 2.0 | 4.0 | 0.00 | 0.00 | 0.00 | 71 | 1013.7 |
| 20260906145037 | 86 | 90 | 2.0 | 4.0 | 0.00 | 0.00 | 0.00 | 74 | 1013.5 |
| 20260906144057 | 86 | 90 | 1.0 | 4.0 | 0.00 | 0.00 | 0.00 | 74 | 1013.5 |
| 20260906143037 | 85 | 90 | 1.0 | 3.0 | 0.00 | 0.00 | 0.00 | 75 | 1013.6 |
| 20260906142037 | 84 | 90 | 2.0 | 5.0 | 0.00 | 0.00 | 0.00 | 76 | 1013.6 |
| 20260906141037 | 83 | 68 | 1.0 | 3.0 | 0.00 | 0.00 | 0.00 | 77 | 1013.6 |
| 20260906140037 | 83 | 90 | 1.0 | 3.0 | 0.00 | 0.00 | 0.00 | 78 | 1013.4 |
| 20260906135037 | 82 | 90 | 1.0 | 6.0 | 0.00 | 0.00 | 0.00 | 80 | 1013.4 |
| 20260906134057 | 81 | 135 | 1.0 | 2.0 | 0.00 | 0.00 | 0.00 | 81 | 1013.3 |
| 20260906133057 | 81 | 113 | 1.0 | 2.0 | 0.00 | 0.00 | 0.00 | 83 | 1013.4 |
| 20260906132057 | 80 | 113 | 1.0 | 2.0 | 0.00 | 0.00 | 0.00 | 84 | 1013.3 |
| 20260906131037 | 79 | 113 | 1.0 | 3.0 | 0.00 | 0.00 | 0.00 | 85 | 1013.3 |
| 20260906130037 | 79 | 0.0 | 0.0 | 0.00 | 0.00 | 0.00 | 86 | 1013.2 | |
| 20260906125037 | 78 | 0.0 | 0.0 | 0.00 | 0.00 | 0.00 | 86 | 1013.1 | |
| 20260906124037 | 78 | 0.0 | 0.0 | 0.00 | 0.00 | 0.00 | 87 | 1013.0 | |
| 20260906123037 | 78 | 0.0 | 0.0 | 0.00 | 0.00 | 0.00 | 87 | 1012.9 | |
| 20260906122037 | 78 | 0.0 | 1.0 | 0.00 | 0.00 | 0.00 | 86 | 1012.9 | |
| 20260906121037 | 78 | 0.0 | 1.0 | 0.00 | 0.00 | 0.00 | 86 | 1012.9 | |
| 20260906120037 | 78 | 0.0 | 2.0 | 0.00 | 0.00 | 0.00 | 86 | 1012.8 | |
| 20260906115037 | 78 | 90 | 1.0 | 3.0 | 0.00 | 0.00 | 0.00 | 86 | 1012.7 |
| 20260906114037 | 78 | 90 | 1.0 | 3.0 | 0.00 | 0.00 | 0.00 | 86 | 1012.8 |
| 20260906113036 | 78 | 0.0 | 0.0 | 0.00 | 0.00 | 0.00 | 86 | 1012.6 | |
| 20260906112037 | 78 | 0.0 | 0.0 | 0.00 | 0.00 | 0.00 | 85 | 1012.6 | |
| 20260906111037 | 78 | 0.0 | 0.0 | 0.00 | 0.00 | 0.00 | 85 | 1012.6 | |
| 20260906110037 | 78 | 0.0 | 1.0 | 0.00 | 0.00 | 0.00 | 85 | 1012.5 | |
| 20260906105057 | 79 | 0.0 | 0.0 | 0.00 | 0.00 | 0.00 | 84 | 1012.4 | |
| 20260906104036 | 79 | 0.0 | 1.0 | 0.00 | 0.00 | 0.00 | 84 | 1012.4 | |
| 20260906103057 | 79 | 0.0 | 0.0 | 0.00 | 0.00 | 0.00 | 84 | 1012.3 | |
| 20260906102036 | 79 | 0.0 | 1.0 | 0.00 | 0.00 | 0.00 | 84 | 1012.3 | |
| 20260906101056 | 79 | 0.0 | 0.0 | 0.00 | 0.00 | 0.00 | 83 | 1012.3 | |
| 20260906100037 | 79 | 0.0 | 0.0 | 0.00 | 0.00 | 0.00 | 83 | 1012.3 | |
| 20260906095036 | 80 | 0.0 | 2.0 | 0.00 | 0.00 | 0.00 | 82 | 1012.1 | |
| 20260906094037 | 80 | 0.0 | 2.0 | 0.00 | 0.00 | 0.00 | 82 | 1012.0 | |
| 20260906093056 | 80 | 0.0 | 1.0 | 0.00 | 0.00 | 0.00 | 82 | 1011.8 | |
| 20260906092057 | 80 | 0.0 | 1.0 | 0.00 | 0.00 | 0.00 | 82 | 1011.7 | |
| 20260906091037 | 80 | 0.0 | 1.0 | 0.00 | 0.00 | 0.00 | 82 | 1011.7 | |
| 20260906090037 | 80 | 0.0 | 0.0 | 0.00 | 0.00 | 0.00 | 81 | 1011.7 | |
| 20260906085036 | 80 | 0.0 | 0.0 | 0.00 | 0.00 | 0.00 | 81 | 1011.6 | |
| 20260906084037 | 80 | 135 | 1.0 | 3.0 | 0.00 | 0.00 | 0.00 | 81 | 1011.7 |
| 20260906083056 | 81 | 158 | 1.0 | 2.0 | 0.00 | 0.00 | 0.00 | 80 | 1011.7 |
| 20260906082036 | 81 | 158 | 1.0 | 2.0 | 0.00 | 0.00 | 0.00 | 80 | 1011.7 |
| 20260906081036 | 81 | 158 | 2.0 | 6.0 | 0.00 | 0.00 | 0.00 | 79 | 1011.9 |
| 20260906080057 | 81 | 180 | 1.0 | 5.0 | 0.00 | 0.00 | 0.00 | 79 | 1011.9 |
| 20260906075037 | 82 | 180 | 2.0 | 3.0 | 0.00 | 0.00 | 0.00 | 78 | 1011.8 |
| 20260906074036 | 82 | 203 | 2.0 | 6.0 | 0.00 | 0.00 | 0.00 | 78 | 1012.1 |
| 20260906073037 | 82 | 158 | 1.0 | 4.0 | 0.00 | 0.00 | 0.00 | 78 | 1011.9 |
| 20260906072036 | 82 | 203 | 1.0 | 6.0 | 0.00 | 0.00 | 0.00 | 77 | 1011.8 |
| 20260906071036 | 82 | 158 | 1.0 | 4.0 | 0.00 | 0.00 | 0.00 | 77 | 1012.0 |
| 20260906070036 | 82 | 0.0 | 2.0 | 0.00 | 0.00 | 0.00 | 77 | 1011.8 | |
| 20260906065037 | 82 | 0.0 | 2.0 | 0.00 | 0.00 | 0.00 | 77 | 1011.8 | |
| 20260906064037 | 82 | 113 | 2.0 | 6.0 | 0.00 | 0.00 | 0.00 | 76 | 1011.8 |
| 20260906063036 | 83 | 113 | 3.0 | 6.0 | 0.00 | 0.00 | 0.00 | 76 | 1011.9 |
| 20260906062036 | 83 | 90 | 2.0 | 5.0 | 0.00 | 0.00 | 0.00 | 75 | 1012.0 |
| 20260906061036 | 83 | 90 | 3.0 | 6.0 | 0.00 | 0.00 | 0.00 | 74 | 1012.2 |
| 20260906060036 | 83 | 113 | 2.0 | 3.0 | 0.00 | 0.00 | 0.00 | 74 | 1012.3 |
| 20260906055036 | 83 | 90 | 3.0 | 6.0 | 0.00 | 0.00 | 0.00 | 73 | 1012.2 |
| 20260906054036 | 83 | 90 | 2.0 | 4.0 | 0.00 | 0.00 | 0.00 | 72 | 1012.1 |
| 20260906053036 | 84 | 90 | 1.0 | 3.0 | 0.00 | 0.00 | 0.00 | 71 | 1012.1 |
| 20260906052036 | 84 | 90 | 3.0 | 7.0 | 0.00 | 0.00 | 0.00 | 71 | 1012.1 |
| 20260906051036 | 84 | 90 | 4.0 | 9.0 | 0.00 | 0.00 | 0.00 | 71 | 1012.1 |
| 20260906050036 | 84 | 113 | 2.0 | 4.0 | 0.00 | 0.00 | 0.00 | 70 | 1011.8 |
| 20260906045036 | 84 | 113 | 2.0 | 4.0 | 0.00 | 0.00 | 0.00 | 70 | 1011.8 |
| 20260906044055 | 85 | 113 | 1.0 | 4.0 | 0.00 | 0.00 | 0.00 | 69 | 1011.9 |
| 20260906043115 | 85 | 113 | 3.0 | 8.0 | 0.00 | 0.00 | 0.00 | 68 | 1012.0 |
| 20260906042036 | 85 | 90 | 4.0 | 9.0 | 0.00 | 0.00 | 0.00 | 68 | 1012.0 |
| 20260906041035 | 85 | 90 | 3.0 | 6.0 | 0.00 | 0.00 | 0.00 | 68 | 1012.0 |
| 20260906040036 | 86 | 90 | 4.0 | 9.0 | 0.00 | 0.00 | 0.00 | 68 | 1012.1 |
| 20260906035036 | 86 | 90 | 3.0 | 7.0 | 0.00 | 0.00 | 0.00 | 68 | 1012.1 |
| 20260906034035 | 86 | 90 | 2.0 | 6.0 | 0.00 | 0.00 | 0.00 | 68 | 1011.9 |
| 20260906033036 | 86 | 90 | 3.0 | 8.0 | 0.00 | 0.00 | 0.00 | 67 | 1011.8 |
| 20260906032035 | 86 | 113 | 3.0 | 6.0 | 0.00 | 0.00 | 0.00 | 67 | 1011.9 |
| 20260906031035 | 86 | 113 | 2.0 | 4.0 | 0.00 | 0.00 | 0.00 | 67 | 1011.9 |
| 20260906030035 | 87 | 90 | 3.0 | 7.0 | 0.00 | 0.00 | 0.00 | 66 | 1011.8 |
| 20260906025035 | 87 | 113 | 4.0 | 8.0 | 0.00 | 0.00 | 0.00 | 66 | 1011.9 |
| 20260906024036 | 87 | 113 | 4.0 | 8.0 | 0.00 | 0.00 | 0.00 | 65 | 1011.8 |
| 20260906023035 | 87 | 90 | 3.0 | 7.0 | 0.00 | 0.00 | 0.00 | 65 | 1011.6 |
| 20260906022035 | 87 | 90 | 3.0 | 7.0 | 0.00 | 0.00 | 0.00 | 64 | 1011.5 |
| 20260906021035 | 87 | 90 | 2.0 | 6.0 | 0.00 | 0.00 | 0.00 | 64 | 1011.3 |
| 20260906020035 | 88 | 90 | 3.0 | 7.0 | 0.00 | 0.00 | 0.00 | 63 | 1011.1 |
| 20260906015036 | 88 | 90 | 4.0 | 8.0 | 0.00 | 0.00 | 0.00 | 62 | 1011.2 |
| 20260906014035 | 88 | 90 | 4.0 | 7.0 | 0.00 | 0.00 | 0.00 | 62 | 1011.0 |
| 20260906013155 | 88 | 90 | 5.0 | 10.0 | 0.00 | 0.00 | 0.00 | 62 | 1010.7 |
| 20260906012035 | 88 | 90 | 5.0 | 11.0 | 0.00 | 0.00 | 0.00 | 61 | 1010.6 |
| 20260906011056 | 89 | 90 | 5.0 | 10.0 | 0.00 | 0.00 | 0.00 | 60 | 1010.5 |
| 20260906010035 | 90 | 90 | 5.0 | 14.0 | 0.00 | 0.00 | 0.00 | 58 | 1010.4 |
| 20260906005035 | 92 | 90 | 8.0 | 17.0 | 0.00 | 0.00 | 0.00 | 54 | 1010.4 |
| 20260906004035 | 93 | 90 | 7.0 | 12.0 | 0.00 | 0.00 | 0.00 | 51 | 1010.2 |
| 20260906003035 | 94 | 90 | 6.0 | 14.0 | 0.00 | 0.00 | 0.00 | 51 | 1010.1 |
| 20260906002035 | 95 | 68 | 5.0 | 11.0 | 0.00 | 0.00 | 0.00 | 50 | 1010.1 |
| 20260906001035 | 96 | 68 | 4.0 | 10.0 | 0.00 | 0.00 | 0.00 | 46 | 1010.0 |
| 20260906000035 | 97 | 90 | 4.0 | 9.0 | 0.00 | 0.00 | 0.00 | 45 | 1009.9 |
| 20260905235035 | 97 | 68 | 4.0 | 8.0 | 0.00 | 0.00 | 0.00 | 45 | 1009.8 |
| 20260905234037 | 98 | 68 | 2.0 | 7.0 | 0.00 | 0.00 | 0.00 | 45 | 1009.7 |
| 20260905233037 | 98 | 135 | 2.0 | 6.0 | 0.00 | 0.00 | 0.00 | 45 | 1009.7 |
| 20260905232037 | 98 | 135 | 3.0 | 9.0 | 0.00 | 0.00 | 0.00 | 44 | 1009.7 |